Time,TemperatureF,DewpointF,PressureIn,WindDirection,WindDirectionDegrees,WindSpeedMPH,WindSpeedGustMPH,Humidity,HourlyPrecipIn,Conditions,Clouds,dailyrainin,SoftwareType,DateUTC
2013-03-04 00:04:00,29.0,18.4,29.68,WSW,246,0.0,0.0,64,0.00,,OVC095,-99.99,VWS V12.07,2013-03-04 05:04:00,
2013-03-04 00:05:00,29.0,18.4,29.68,WSW,246,0.0,0.0,64,0.00,,OVC095,-99.99,VWS V12.07,2013-03-04 05:05:00,
2013-03-04 00:12:00,29.0,18.7,29.68,WSW,246,0.0,0.0,65,0.00,,OVC095,-99.99,VWS V12.07,2013-03-04 05:12:00,
2013-03-04 00:22:00,28.8,18.5,29.69,WSW,246,0.0,0.0,65,0.00,,OVC095,-99.99,VWS V12.07,2013-03-04 05:22:00,
2013-03-04 00:33:00,28.8,18.9,29.69,WSW,247,0.0,0.0,66,0.00,,OVC095,-99.99,VWS V12.07,2013-03-04 05:33:00,
2013-03-04 00:42:00,28.7,19.1,29.69,WSW,246,0.0,0.0,67,0.00,,OVC095,-99.99,VWS V12.07,2013-03-04 05:42:00,
2013-03-04 00:52:00,28.7,18.1,29.69,WSW,246,0.0,0.0,64,0.00,,OVC095,-99.99,VWS V12.07,2013-03-04 05:52:00,
2013-03-04 01:03:00,28.7,18.4,29.69,WSW,246,0.0,0.0,65,0.00,,OVC095,-99.99,VWS V12.07,2013-03-04 06:03:00,
2013-03-04 01:12:00,28.8,18.5,29.69,WSW,246,0.0,0.0,65,0.00,,OVC095,-99.99,VWS V12.07,2013-03-04 06:12:00,
2013-03-04 01:22:00,28.8,18.9,29.69,WSW,246,0.0,0.0,66,0.00,,OVC095,-99.99,VWS V12.07,2013-03-04 06:22:00,
2013-03-04 01:33:00,28.8,18.5,29.69,WSW,246,0.0,0.0,65,0.00,,OVC095,-99.99,VWS V12.07,2013-03-04 06:33:00,
2013-03-04 01:42:00,28.8,18.9,29.69,WSW,246,0.0,0.0,66,0.00,,OVC095,-99.99,VWS V12.07,2013-03-04 06:42:00,
2013-03-04 01:52:00,28.7,18.8,29.69,WSW,246,0.0,0.0,66,0.00,,OVC095,-99.99,VWS V12.07,2013-03-04 06:52:00,
2013-03-04 02:03:00,28.7,19.1,29.69,WSW,246,0.0,0.0,67,0.00,,OVC095,-99.99,VWS V12.07,2013-03-04 07:03:00,
2013-03-04 02:12:00,28.7,19.1,29.69,WSW,246,0.0,0.0,67,0.00,,OVC095,-99.99,VWS V12.07,2013-03-04 07:12:00,
2013-03-04 02:22:00,28.7,19.1,29.69,WSW,246,0.0,0.0,67,0.00,,OVC095,-99.99,VWS V12.07,2013-03-04 07:22:00,
2013-03-04 02:33:00,28.7,19.5,29.69,WSW,246,0.0,0.0,68,0.00,,OVC095,-99.99,VWS V12.07,2013-03-04 07:33:00,
2013-03-04 02:42:00,28.7,19.1,29.69,WSW,246,0.0,0.0,67,0.00,,OVC095,-99.99,VWS V12.07,2013-03-04 07:42:00,
2013-03-04 02:52:00,28.7,19.5,29.69,WSW,246,0.0,0.0,68,0.00,,OVC095,-99.99,VWS V12.07,2013-03-04 07:52:00,
2013-03-04 03:03:00,28.7,19.1,29.69,WSW,246,0.0,1.0,67,0.00,,OVC095,-99.99,VWS V12.07,2013-03-04 08:03:00,
2013-03-04 03:12:00,28.7,19.5,29.69,WSW,246,0.0,1.0,68,0.00,,OVC095,-99.99,VWS V12.07,2013-03-04 08:12:00,
2013-03-04 03:22:00,28.8,19.6,29.69,WSW,246,0.0,1.0,68,0.00,,OVC095,-99.99,VWS V12.07,2013-03-04 08:22:00,
2013-03-04 03:33:00,28.7,19.1,29.70,WSW,246,0.0,0.0,67,0.00,,OVC095,-99.99,VWS V12.07,2013-03-04 08:33:00,
2013-03-04 03:42:00,28.7,19.1,29.70,WSW,246,0.0,0.0,67,0.00,,OVC095,-99.99,VWS V12.07,2013-03-04 08:42:00,
2013-03-04 03:52:00,28.5,19.6,29.70,WSW,246,0.0,0.0,69,0.00,,OVC095,-99.99,VWS V12.07,2013-03-04 08:52:00,
2013-03-04 04:04:00,28.2,20.4,29.70,WSW,246,0.0,0.0,72,0.00,,OVC095,-99.99,VWS V12.07,2013-03-04 09:04:00,
2013-03-04 04:12:00,28.1,19.6,29.70,WSW,246,0.0,0.0,70,0.00,,OVC095,-99.99,VWS V12.07,2013-03-04 09:12:00,
2013-03-04 04:22:00,27.9,20.4,29.70,WSW,246,0.0,0.0,73,0.00,,OVC095,-99.99,VWS V12.07,2013-03-04 09:22:00,
2013-03-04 04:33:00,27.6,19.8,29.70,WSW,246,0.0,0.0,72,0.00,,OVC095,-99.99,VWS V12.07,2013-03-04 09:33:00,
2013-03-04 04:42:00,27.6,20.4,29.70,WSW,246,0.0,0.0,74,0.00,,OVC095,-99.99,VWS V12.07,2013-03-04 09:42:00,
2013-03-04 04:52:00,27.6,20.4,29.70,WSW,246,0.0,0.0,74,0.00,,OVC095,-99.99,VWS V12.07,2013-03-04 09:52:00,
2013-03-04 05:04:00,27.5,20.0,29.70,WSW,246,0.0,0.0,73,0.00,,OVC095,-99.99,VWS V12.07,2013-03-04 10:04:00,
2013-03-04 05:12:00,27.5,20.6,29.70,WSW,246,0.0,0.0,75,0.00,,OVC095,-99.99,VWS V12.07,2013-03-04 10:12:00,
2013-03-04 05:22:00,27.3,20.4,29.71,WSW,246,0.0,0.0,75,0.00,,OVC095,-99.99,VWS V12.07,2013-03-04 10:22:00,
2013-03-04 05:33:00,27.2,21.0,29.71,WSW,246,0.0,0.0,77,0.00,,OVC095,-99.99,VWS V12.07,2013-03-04 10:33:00,
2013-03-04 05:42:00,27.0,20.1,29.71,WSW,246,0.0,0.0,75,0.00,,OVC095,-99.99,VWS V12.07,2013-03-04 10:42:00,
2013-03-04 05:52:00,27.0,20.5,29.71,WSW,246,0.0,0.0,76,0.00,,OVC095,-99.99,VWS V12.07,2013-03-04 10:52:00,
2013-03-04 06:04:00,26.7,20.8,29.71,WSW,246,0.0,0.0,78,0.00,,OVC095,-99.99,VWS V12.07,2013-03-04 11:04:00,
2013-03-04 06:12:00,26.4,20.5,29.71,WSW,246,0.0,0.0,78,0.00,,OVC095,-99.99,VWS V12.07,2013-03-04 11:12:00,
2013-03-04 06:22:00,26.3,20.7,29.71,WSW,246,0.0,0.0,79,0.00,,OVC095,-99.99,VWS V12.07,2013-03-04 11:22:00,
2013-03-04 06:34:00,26.0,20.7,29.71,WSW,246,0.0,0.0,80,0.00,,OVC095,-99.99,VWS V12.07,2013-03-04 11:34:00,
2013-03-04 06:42:00,26.0,20.7,29.71,WSW,246,0.0,0.0,80,0.00,,OVC095,-99.99,VWS V12.07,2013-03-04 11:42:00,
2013-03-04 06:52:00,26.0,21.3,29.72,WSW,246,0.0,0.0,82,0.00,,OVC095,-99.99,VWS V12.07,2013-03-04 11:52:00,
2013-03-04 07:03:00,26.3,21.3,29.72,WSW,246,0.0,0.0,81,0.00,,OVC095,-99.99,VWS V12.07,2013-03-04 12:03:00,
2013-03-04 07:12:00,26.6,21.6,29.72,WSW,246,0.0,0.0,81,0.00,,OVC095,-99.99,VWS V12.07,2013-03-04 12:12:00,
2013-03-04 07:22:00,27.0,21.7,29.72,WSW,246,0.0,0.0,80,0.00,,OVC095,-99.99,VWS V12.07,2013-03-04 12:22:00,
2013-03-04 07:33:00,27.5,21.9,29.73,WSW,246,0.0,0.0,79,0.00,,OVC095,-99.99,VWS V12.07,2013-03-04 12:33:00,
2013-03-04 07:42:00,27.8,21.9,29.73,WSW,246,0.0,0.0,78,0.00,,OVC095,-99.99,VWS V12.07,2013-03-04 12:42:00,
2013-03-04 07:52:00,28.2,21.3,29.73,WSW,246,1.0,2.0,75,0.00,,OVC095,-99.99,VWS V12.07,2013-03-04 12:52:00,
2013-03-04 08:04:00,28.7,21.5,29.72,WSW,246,0.0,0.0,74,0.00,,OVC095,-99.99,VWS V12.07,2013-03-04 13:04:00,
2013-03-04 08:12:00,29.0,21.1,29.72,WSW,246,0.0,1.0,72,0.00,,OVC095,-99.99,VWS V12.07,2013-03-04 13:12:00,
2013-03-04 08:22:00,29.3,20.7,29.72,WSW,246,0.0,1.0,70,0.00,,OVC095,-99.99,VWS V12.07,2013-03-04 13:22:00,
2013-03-04 08:33:00,29.7,20.8,29.72,WSW,246,0.0,0.0,69,0.00,,OVC095,-99.99,VWS V12.07,2013-03-04 13:33:00,
2013-03-04 08:42:00,30.3,21.0,29.72,WSW,246,0.0,1.0,68,0.00,,OVC095,-99.99,VWS V12.07,2013-03-04 13:42:00,
2013-03-04 08:52:00,30.7,20.3,29.71,South,191,0.0,1.0,65,0.00,,OVC095,-99.99,VWS V12.07,2013-03-04 13:52:00,
2013-03-04 09:04:00,31.3,20.2,29.71,NE,34,1.0,1.0,63,0.00,,OVC095,-99.99,VWS V12.07,2013-03-04 14:04:00,
2013-03-04 09:12:00,32.1,21.3,29.71,NE,34,0.0,2.0,64,0.00,,OVC095,-99.99,VWS V12.07,2013-03-04 14:12:00,
2013-03-04 09:22:00,32.5,20.6,29.72,SSE,147,0.0,2.0,61,0.00,,OVC095,-99.99,VWS V12.07,2013-03-04 14:22:00,
2013-03-04 09:33:00,32.9,20.5,29.72,WNW,299,1.0,2.0,60,0.00,,OVC095,-99.99,VWS V12.07,2013-03-04 14:33:00,
2013-03-04 09:42:00,33.2,20.4,29.72,WNW,299,1.0,2.0,59,0.00,,OVC095,-99.99,VWS V12.07,2013-03-04 14:42:00,
2013-03-04 09:52:00,33.4,21.4,29.72,WNW,299,0.0,2.0,61,0.00,,OVC095,-99.99,VWS V12.07,2013-03-04 14:52:00,
2013-03-04 10:04:00,34.3,21.1,29.72,SE,145,0.0,5.0,58,0.00,,OVC095,-99.99,VWS V12.07,2013-03-04 15:04:00,
2013-03-04 10:12:00,35.3,22.0,29.72,WSW,237,5.0,5.0,58,0.00,,OVC095,-99.99,VWS V12.07,2013-03-04 15:12:00,
2013-03-04 10:22:00,36.0,22.3,29.72,WSW,250,3.0,5.0,57,0.00,,OVC095,-99.99,VWS V12.07,2013-03-04 15:22:00,
2013-03-04 10:34:00,36.8,21.7,29.71,WSW,248,1.0,6.0,54,0.00,,OVC095,-99.99,VWS V12.07,2013-03-04 15:34:00,
2013-03-04 10:42:00,36.3,21.3,29.71,West,272,3.0,6.0,54,0.00,,OVC095,-99.99,VWS V12.07,2013-03-04 15:42:00,
2013-03-04 10:52:00,36.0,21.4,29.71,WSW,256,0.0,6.0,55,0.00,,OVC095,-99.99,VWS V12.07,2013-03-04 15:52:00,
2013-03-04 11:03:00,35.8,21.6,29.72,SW,217,0.0,2.0,56,0.00,,OVC095,-99.99,VWS V12.07,2013-03-04 16:03:00,
2013-03-04 11:12:00,35.9,21.3,29.72,SW,236,1.0,3.0,55,0.00,,OVC095,-99.99,VWS V12.07,2013-03-04 16:12:00,
2013-03-04 11:22:00,36.3,20.8,29.71,SSE,160,1.0,4.0,53,0.00,,OVC095,-99.99,VWS V12.07,2013-03-04 16:22:00,
2013-03-04 11:33:00,36.3,22.1,29.71,WSW,246,1.0,7.0,56,0.00,,OVC095,-99.99,VWS V12.07,2013-03-04 16:33:00,
2013-03-04 11:42:00,36.5,21.0,29.71,SSW,192,1.0,7.0,53,0.00,,OVC095,-99.99,VWS V12.07,2013-03-04 16:42:00,
2013-03-04 11:52:00,36.3,20.8,29.70,SSE,161,5.0,11.0,53,0.00,,OVC095,-99.99,VWS V12.07,2013-03-04 16:52:00,
2013-03-04 12:04:00,36.6,21.1,29.70,SSE,158,1.0,1.0,53,0.00,,OVC095,-99.99,VWS V12.07,2013-03-04 17:04:00,
2013-03-04 12:12:00,37.0,21.0,29.70,South,184,1.0,6.0,52,0.00,,OVC095,-99.99,VWS V12.07,2013-03-04 17:12:00,
2013-03-04 12:22:00,37.8,22.2,29.69,WSW,258,1.0,8.0,53,0.00,,OVC095,-99.99,VWS V12.07,2013-03-04 17:22:00,
2013-03-04 12:34:00,39.2,21.2,29.69,North,349,4.0,9.0,48,0.00,,OVC095,-99.99,VWS V12.07,2013-03-04 17:34:00,
2013-03-04 12:42:00,39.8,21.7,29.69,SSE,155,4.0,9.0,48,0.00,,OVC095,-99.99,VWS V12.07,2013-03-04 17:42:00,
2013-03-04 12:52:00,40.6,23.4,29.69,SSE,155,2.0,9.0,50,0.00,,OVC095,-99.99,VWS V12.07,2013-03-04 17:52:00,
2013-03-04 13:03:00,39.9,22.3,29.68,SE,127,8.0,8.0,49,0.00,,OVC095,-99.99,VWS V12.07,2013-03-04 18:03:00,
2013-03-04 13:12:00,39.3,22.7,29.68,WSW,253,3.0,8.0,51,0.00,,OVC095,-99.99,VWS V12.07,2013-03-04 18:12:00,
2013-03-04 13:22:00,39.6,22.0,29.68,WSW,257,0.0,8.0,49,0.00,,OVC095,-99.99,VWS V12.07,2013-03-04 18:22:00,
2013-03-04 13:33:00,41.6,22.9,29.68,WSW,251,4.0,4.0,47,0.00,,OVC095,-99.99,VWS V12.07,2013-03-04 18:33:00,
2013-03-04 13:42:00,41.2,24.0,29.68,West,263,3.0,6.0,50,0.00,,OVC095,-99.99,VWS V12.07,2013-03-04 18:42:00,
2013-03-04 13:52:00,41.5,23.8,29.68,WSW,246,3.0,7.0,49,0.00,,OVC095,-99.99,VWS V12.07,2013-03-04 18:52:00,
2013-03-04 14:01:00,42.5,23.2,29.68,SSE,150,6.0,12.0,46,0.00,,OVC095,-99.99,VWS V12.07,2013-03-04 19:01:00,
2013-03-04 14:12:00,42.2,24.4,29.68,WSW,248,2.0,12.0,49,0.00,,OVC095,-99.99,VWS V12.07,2013-03-04 19:12:00,
2013-03-04 14:22:00,42.1,24.8,29.68,WSW,247,2.0,12.0,50,0.00,,OVC095,-99.99,VWS V12.07,2013-03-04 19:22:00,
2013-03-04 14:34:00,41.6,22.4,29.69,WSW,251,3.0,5.0,46,0.00,,OVC095,-99.99,VWS V12.07,2013-03-04 19:34:00,
2013-03-04 14:42:00,41.8,22.5,29.69,WSW,253,1.0,7.0,46,0.00,,OVC095,-99.99,VWS V12.07,2013-03-04 19:42:00,
2013-03-04 14:52:00,41.8,24.1,29.69,West,268,6.0,7.0,49,0.00,,OVC095,-99.99,VWS V12.07,2013-03-04 19:52:00,
2013-03-04 15:04:00,41.9,23.2,29.70,WNW,287,0.0,3.0,47,0.00,,OVC095,-99.99,VWS V12.07,2013-03-04 20:04:00,
2013-03-04 15:12:00,40.9,23.2,29.70,WSW,253,1.0,4.0,49,0.00,,OVC095,-99.99,VWS V12.07,2013-03-04 20:12:00,
2013-03-04 15:22:00,40.5,22.4,29.70,East,80,0.0,5.0,48,0.00,,OVC095,-99.99,VWS V12.07,2013-03-04 20:22:00,
2013-03-04 15:33:00,39.2,21.7,29.71,SW,234,3.0,3.0,49,0.00,,OVC095,-99.99,VWS V12.07,2013-03-04 20:33:00,
2013-03-04 15:42:00,38.5,22.4,29.71,WSW,248,3.0,5.0,52,0.00,,OVC095,-99.99,VWS V12.07,2013-03-04 20:42:00,
2013-03-04 15:52:00,38.0,21.5,29.71,West,263,1.0,5.0,51,0.00,,OVC095,-99.99,VWS V12.07,2013-03-04 20:52:00,
2013-03-04 16:04:00,38.0,22.4,29.71,West,278,2.0,3.0,53,0.00,,OVC095,-99.99,VWS V12.07,2013-03-04 21:04:00,
2013-03-04 16:12:00,38.8,22.2,29.71,West,275,2.0,6.0,51,0.00,,OVC095,-99.99,VWS V12.07,2013-03-04 21:12:00,
2013-03-04 16:22:00,39.5,22.9,29.71,WSW,247,0.0,6.0,51,0.00,,OVC095,-99.99,VWS V12.07,2013-03-04 21:22:00,
2013-03-04 16:34:00,39.1,22.0,29.72,West,265,3.0,7.0,50,0.00,,OVC095,-99.99,VWS V12.07,2013-03-04 21:34:00,
2013-03-04 16:42:00,38.3,21.8,29.72,West,260,2.0,7.0,51,0.00,,OVC095,-99.99,VWS V12.07,2013-03-04 21:42:00,
2013-03-04 16:52:00,37.8,21.3,29.72,West,277,0.0,7.0,51,0.00,,OVC095,-99.99,VWS V12.07,2013-03-04 21:52:00,
2013-03-04 17:03:00,36.8,21.3,29.73,SW,226,4.0,6.0,53,0.00,,OVC095,-99.99,VWS V12.07,2013-03-04 22:03:00,
2013-03-04 17:12:00,36.0,20.5,29.73,West,274,2.0,6.0,53,0.00,,OVC095,-99.99,VWS V12.07,2013-03-04 22:12:00,
2013-03-04 17:22:00,35.5,21.4,29.73,North,0,1.0,6.0,56,0.00,,OVC095,-99.99,VWS V12.07,2013-03-04 22:22:00,
2013-03-04 17:33:00,35.2,21.1,29.74,WSW,253,4.0,4.0,56,0.00,,OVC095,-99.99,VWS V12.07,2013-03-04 22:33:00,
2013-03-04 17:42:00,34.7,20.2,29.74,North,0,0.0,4.0,55,0.00,,OVC095,-99.99,VWS V12.07,2013-03-04 22:42:00,
2013-03-04 17:52:00,34.3,20.7,29.75,WSW,254,0.0,4.0,57,0.00,,OVC095,-99.99,VWS V12.07,2013-03-04 22:52:00,
2013-03-04 18:04:00,34.0,20.4,29.76,WSW,246,0.0,3.0,57,0.00,,OVC095,-99.99,VWS V12.07,2013-03-04 23:04:00,
2013-03-04 18:12:00,33.7,20.1,29.76,NNW,342,0.0,3.0,57,0.00,,OVC095,-99.99,VWS V12.07,2013-03-04 23:12:00,
2013-03-04 18:22:00,33.5,19.9,29.76,West,280,0.0,3.0,57,0.00,,OVC095,-99.99,VWS V12.07,2013-03-04 23:22:00,
2013-03-04 18:34:00,33.4,19.8,29.77,WNW,294,0.0,0.0,57,0.00,,OVC095,-99.99,VWS V12.07,2013-03-04 23:34:00,
2013-03-04 18:42:00,33.2,19.6,29.77,WNW,294,0.0,0.0,57,0.00,,OVC095,-99.99,VWS V12.07,2013-03-04 23:42:00,
2013-03-04 18:52:00,33.1,20.7,29.78,WNW,294,0.0,0.0,60,0.00,,OVC095,-99.99,VWS V12.07,2013-03-04 23:52:00,
2013-03-04 19:04:00,32.9,19.8,29.78,West,263,0.0,2.0,58,0.00,,OVC095,-99.99,VWS V12.07,2013-03-05 00:04:00,
2013-03-04 19:12:00,32.9,20.2,29.78,West,263,0.0,2.0,59,0.00,,OVC095,-99.99,VWS V12.07,2013-03-05 00:12:00,
2013-03-04 19:22:00,32.9,20.2,29.78,West,263,0.0,2.0,59,0.00,,OVC095,-99.99,VWS V12.07,2013-03-05 00:22:00,
2013-03-04 19:33:00,32.9,20.2,29.79,West,261,0.0,0.0,59,0.00,,OVC095,-99.99,VWS V12.07,2013-03-05 00:33:00,
2013-03-04 19:42:00,32.9,20.5,29.79,West,261,0.0,1.0,60,0.00,,OVC095,-99.99,VWS V12.07,2013-03-05 00:42:00,
2013-03-04 19:52:00,32.8,20.9,29.79,West,261,0.0,1.0,61,0.00,,OVC095,-99.99,VWS V12.07,2013-03-05 00:52:00,
2013-03-04 20:04:00,32.8,20.9,29.80,NNE,14,0.0,1.0,61,0.00,,OVC095,-99.99,VWS V12.07,2013-03-05 01:04:00,
2013-03-04 20:11:00,32.8,20.9,29.80,NNE,30,0.0,3.0,61,0.00,,OVC095,-99.99,VWS V12.07,2013-03-05 01:11:00,
2013-03-04 20:22:00,32.8,20.9,29.80,NNE,30,0.0,3.0,61,0.00,,OVC095,-99.99,VWS V12.07,2013-03-05 01:22:00,
2013-03-04 20:34:00,32.7,20.8,29.81,North,8,0.0,1.0,61,0.00,,OVC095,-99.99,VWS V12.07,2013-03-05 01:34:00,
2013-03-04 20:42:00,32.7,20.8,29.81,WSW,257,0.0,1.0,61,0.00,,OVC095,-99.99,VWS V12.07,2013-03-05 01:42:00,
2013-03-04 20:52:00,32.5,20.9,29.82,NNE,14,1.0,3.0,62,0.00,,OVC095,-99.99,VWS V12.07,2013-03-05 01:52:00,
2013-03-04 21:04:00,32.5,20.9,29.82,SW,233,0.0,0.0,62,0.00,,OVC095,-99.99,VWS V12.07,2013-03-05 02:04:00,
2013-03-04 21:12:00,32.4,20.9,29.82,WSW,256,0.0,3.0,62,0.00,,OVC095,-99.99,VWS V12.07,2013-03-05 02:12:00,
2013-03-04 21:22:00,32.4,20.9,29.83,NNW,330,2.0,5.0,62,0.00,,OVC095,-99.99,VWS V12.07,2013-03-05 02:22:00,
2013-03-04 21:33:00,32.4,21.2,29.83,NNW,328,2.0,3.0,63,0.00,,OVC095,-99.99,VWS V12.07,2013-03-05 02:33:00,
2013-03-04 21:42:00,32.2,21.0,29.83,WNW,285,1.0,4.0,63,0.00,,OVC095,-99.99,VWS V12.07,2013-03-05 02:42:00,
2013-03-04 21:52:00,32.2,21.4,29.83,NW,313,0.0,5.0,64,0.00,,OVC095,-99.99,VWS V12.07,2013-03-05 02:52:00,
2013-03-04 22:04:00,32.1,21.3,29.84,West,261,3.0,3.0,64,0.00,,OVC095,-99.99,VWS V12.07,2013-03-05 03:04:00,
2013-03-04 22:12:00,32.1,21.3,29.84,WSW,256,4.0,5.0,64,0.00,,OVC095,-99.99,VWS V12.07,2013-03-05 03:12:00,
2013-03-04 22:22:00,32.1,21.7,29.84,North,349,2.0,5.0,65,0.00,,OVC095,-99.99,VWS V12.07,2013-03-05 03:22:00,
2013-03-04 22:34:00,32.1,21.7,29.84,NNW,329,1.0,2.0,65,0.00,,OVC095,-99.99,VWS V12.07,2013-03-05 03:34:00,
2013-03-04 22:42:00,32.1,21.7,29.84,WSW,254,1.0,6.0,65,0.00,,OVC095,-99.99,VWS V12.07,2013-03-05 03:42:00,
2013-03-04 22:52:00,32.1,21.7,29.84,WSW,257,0.0,6.0,65,0.00,,OVC095,-99.99,VWS V12.07,2013-03-05 03:52:00,
2013-03-04 23:03:00,32.1,21.7,29.84,NNE,23,2.0,2.0,65,0.00,,OVC095,-99.99,VWS V12.07,2013-03-05 04:03:00,
2013-03-04 23:12:00,32.1,21.7,29.84,North,353,1.0,2.0,65,0.00,,OVC095,-99.99,VWS V12.07,2013-03-05 04:12:00,
2013-03-04 23:22:00,32.2,21.8,29.83,NNE,25,0.0,2.0,65,0.00,,OVC095,-99.99,VWS V12.07,2013-03-05 04:22:00,
2013-03-04 23:33:00,32.1,21.7,29.83,WNW,292,0.0,1.0,65,0.00,,OVC095,-99.99,VWS V12.07,2013-03-05 04:33:00,
2013-03-04 23:42:00,32.1,21.7,29.83,West,281,0.0,2.0,65,0.00,,OVC095,-99.99,VWS V12.07,2013-03-05 04:42:00,
2013-03-04 23:52:00,32.2,21.8,29.83,NNE,24,0.0,2.0,65,0.00,,OVC095,-99.99,VWS V12.07,2013-03-05 04:52:00,